Location: Bretagne
(43.8474°N, 0.4650°W)
Time: 10:24:41
(UTC+00:00)

USA 59 Rocket - Pass Details

Date: 15 January 2026
Orbit: 369 x 1672 km, 63.3° (Epoch: 10 February)

Event Time Altitude Azimuth Distance (km) Brightness Sun altitude
Rises 19:10:51 0° 328° (NNW) 2,383 3.4 -24.9°
Reaches altitude 10° 19:12:45 10° 335° (NNW) 1,606 2.4 -25.2°
Enters shadow 19:13:04 12° 337° (NNW) 1,484 2.2 -25.3°
